• în România
  • Lista ţărilor
  • Pe 7 zile
  • Temperatura apei
  • Hartă satelitară
  • Meteo pe hartă
  • Widget-uri
  • user-avatar
    Intrare

    Meteo pe oră la Dzhyakovo

    Astăzi, 18 Februarie, Duminică

    Timp Temperatura Precipitaţii Vânt Presiune Umiditate
    00:00 +4°C° 0,6 mm 2 m/s 756 mmHg 79%
    01:00 +5°C° 0,6 mm 1 m/s 756 mmHg 82%
    02:00 +5°C° 0,7 mm 1 m/s 756 mmHg 84%
    03:00 +4°C° 0,7 mm 1 m/s 756 mmHg 86%
    04:00 +4°C° 0,7 mm 1 m/s 756 mmHg 88%
    05:00 +3°C° 0,2 mm 2 m/s 756 mmHg 89%
    06:00 +3°C° 0,2 mm 2 m/s 757 mmHg 90%
    07:00 +3°C° 0,2 mm 2 m/s 757 mmHg 90%
    08:00 +2°C° 0 mm 3 m/s 758 mmHg 88%
    09:00 +2°C° 0 mm 3 m/s 758 mmHg 85%
    10:00 +3°C° 0 mm 4 m/s 759 mmHg 82%
    11:00 +3°C° 0,1 mm 4 m/s 759 mmHg 80%
    12:00 +3°C° 0,1 mm 4 m/s 759 mmHg 78%
    13:00 +4°C° 0,1 mm 4 m/s 759 mmHg 76%
    14:00 +4°C° 0,1 mm 4 m/s 759 mmHg 76%
    15:00 +3°C° 0,1 mm 4 m/s 759 mmHg 77%
    16:00 +3°C° 0,1 mm 4 m/s 760 mmHg 77%
    17:00 +3°C° 0,1 mm 4 m/s 760 mmHg 79%
    18:00 +2°C° 0,1 mm 3 m/s 760 mmHg 80%
    19:00 +2°C° 0,1 mm 3 m/s 760 mmHg 81%
    20:00 +2°C° 0 mm 3 m/s 760 mmHg 82%
    21:00 +1°C° 0 mm 3 m/s 760 mmHg 83%
    22:00 +1°C° 0 mm 3 m/s 760 mmHg 84%
    23:00 +1°C° 0 mm 3 m/s 760 mmHg 83%

    Mâine, 19 Februarie, Luni

    Timp Temperatura Precipitaţii Vânt Presiune Umiditate
    00:00 0°C° 0 mm 3 m/s 760 mmHg 83%
    01:00 0°C° 0 mm 3 m/s 760 mmHg 82%
    02:00 -1°C° 0 mm 3 m/s 760 mmHg 81%
    03:00 -1°C° 0 mm 3 m/s 759 mmHg 80%
    04:00 -2°C° 0 mm 3 m/s 759 mmHg 80%
    05:00 -2°C° 0 mm 3 m/s 759 mmHg 79%
    06:00 -2°C° 0 mm 3 m/s 759 mmHg 78%
    07:00 -2°C° 0 mm 3 m/s 759 mmHg 78%
    08:00 -1°C° 0 mm 3 m/s 759 mmHg 73%
    09:00 0°C° 0 mm 3 m/s 759 mmHg 69%
    10:00 +1°C° 0 mm 3 m/s 759 mmHg 65%
    11:00 +1°C° 0 mm 3 m/s 758 mmHg 63%
    12:00 +2°C° 0 mm 3 m/s 758 mmHg 60%
    13:00 +3°C° 0 mm 3 m/s 757 mmHg 58%
    14:00 +3°C° 0 mm 3 m/s 757 mmHg 60%
    15:00 +3°C° 0 mm 3 m/s 757 mmHg 63%
    16:00 +3°C° 0 mm 3 m/s 756 mmHg 65%
    17:00 +4°C° 0,1 mm 2 m/s 756 mmHg 70%
    18:00 +3°C° 0,1 mm 2 m/s 756 mmHg 75%
    19:00 +3°C° 0,1 mm 2 m/s 756 mmHg 80%
    20:00 +3°C° 0,2 mm 2 m/s 756 mmHg 82%
    21:00 +3°C° 0,2 mm 2 m/s 755 mmHg 84%
    22:00 +3°C° 0,2 mm 2 m/s 755 mmHg 86%
    23:00 +3°C° 0,4 mm 2 m/s 755 mmHg 87%

    Poimâine, 20 Februarie, Marţi

    Timp Temperatura Precipitaţii Vânt Presiune Umiditate
    00:00 +3°C° 0,4 mm 2 m/s 755 mmHg 87%
    01:00 +2°C° 0,4 mm 3 m/s 754 mmHg 87%
    02:00 +2°C° 0,3 mm 3 m/s 754 mmHg 88%
    03:00 +2°C° 0,3 mm 3 m/s 753 mmHg 88%
    04:00 +2°C° 0,3 mm 3 m/s 753 mmHg 89%
    05:00 +2°C° 0,2 mm 3 m/s 752 mmHg 89%
    06:00 +2°C° 0,2 mm 3 m/s 752 mmHg 89%
    07:00 +2°C° 0,2 mm 3 m/s 752 mmHg 89%
    08:00 +2°C° 0,9 mm 3 m/s 752 mmHg 89%
    09:00 +2°C° 0,9 mm 3 m/s 751 mmHg 89%
    10:00 +2°C° 0,9 mm 3 m/s 751 mmHg 89%
    11:00 +2°C° 0,7 mm 3 m/s 751 mmHg 89%
    12:00 +2°C° 0,7 mm 3 m/s 751 mmHg 90%
    13:00 +2°C° 0,7 mm 3 m/s 750 mmHg 91%
    14:00 +3°C° 0,4 mm 2 m/s 750 mmHg 91%
    15:00 +3°C° 0,4 mm 2 m/s 750 mmHg 92%
    16:00 +4°C° 0,4 mm 1 m/s 749 mmHg 93%
    17:00 +4°C° 0,2 mm 1 m/s 749 mmHg 94%
    18:00 +4°C° 0,2 mm 1 m/s 749 mmHg 95%
    19:00 +3°C° 0,2 mm 1 m/s 749 mmHg 95%
    20:00 +3°C° 0,2 mm 1 m/s 749 mmHg 95%
    21:00 +3°C° 0,2 mm 1 m/s 750 mmHg 95%
    22:00 +3°C° 0,2 mm 1 m/s 750 mmHg 95%
    23:00 +3°C° 0,1 mm 1 m/s 750 mmHg 95%

    21 Februarie, Miercuri

    Timp Temperatura Precipitaţii Vânt Presiune Umiditate
    00:00 +3°C° 0,1 mm 1 m/s 749 mmHg 95%
    01:00 +2°C° 0,1 mm 1 m/s 749 mmHg 95%
    02:00 +2°C° 0 mm 1 m/s 749 mmHg 95%
    03:00 +2°C° 0 mm 1 m/s 749 mmHg 95%
    04:00 +2°C° 0 mm 1 m/s 749 mmHg 95%
    05:00 +2°C° 0 mm 1 m/s 749 mmHg 95%
    06:00 +2°C° 0 mm 1 m/s 749 mmHg 95%
    07:00 +2°C° 0 mm 1 m/s 749 mmHg 95%
    08:00 +3°C° 0 mm 1 m/s 749 mmHg 93%
    09:00 +3°C° 0 mm 2 m/s 749 mmHg 92%
    10:00 +3°C° 0 mm 2 m/s 749 mmHg 91%
    11:00 +4°C° 0,2 mm 2 m/s 749 mmHg 90%
    12:00 +3°C° 0,2 mm 3 m/s 749 mmHg 89%
    13:00 +4°C° 0,2 mm 3 m/s 748 mmHg 88%
    14:00 +3°C° 0,7 mm 3 m/s 748 mmHg 88%
    15:00 +3°C° 0,7 mm 3 m/s 748 mmHg 89%
    16:00 +3°C° 0,7 mm 3 m/s 748 mmHg 90%
    17:00 +3°C° 0,7 mm 4 m/s 748 mmHg 91%
    18:00 +3°C° 0,7 mm 4 m/s 748 mmHg 92%
    19:00 +3°C° 0,7 mm 4 m/s 748 mmHg 93%
    20:00 +3°C° 0,4 mm 3 m/s 749 mmHg 93%
    21:00 +3°C° 0,4 mm 3 m/s 749 mmHg 94%
    22:00 +3°C° 0,4 mm 3 m/s 749 mmHg 94%
    23:00 +3°C° 0,1 mm 3 m/s 749 mmHg 94%

    22 Februarie, Joi

    Timp Temperatura Precipitaţii Vânt Presiune Umiditate
    00:00 +3°C° 0,1 mm 3 m/s 749 mmHg 94%
    01:00 +3°C° 0,1 mm 3 m/s 749 mmHg 94%
    02:00 +2°C° 0,1 mm 3 m/s 749 mmHg 94%
    03:00 +2°C° 0,1 mm 3 m/s 749 mmHg 94%
    04:00 +2°C° 0,1 mm 3 m/s 749 mmHg 94%
    05:00 +2°C° 0,2 mm 3 m/s 749 mmHg 94%
    06:00 +2°C° 0,2 mm 3 m/s 749 mmHg 94%
    07:00 +2°C° 0,2 mm 3 m/s 749 mmHg 94%
    08:00 +2°C° 0,2 mm 3 m/s 749 mmHg 93%
    09:00 +1°C° 0,2 mm 4 m/s 750 mmHg 92%
    10:00 +1°C° 0,2 mm 4 m/s 750 mmHg 91%
    11:00 +1°C° 0,2 mm 4 m/s 750 mmHg 90%
    12:00 +1°C° 0,2 mm 4 m/s 750 mmHg 89%
    13:00 +1°C° 0,2 mm 4 m/s 750 mmHg 89%
    14:00 +1°C° 0,2 mm 4 m/s 750 mmHg 89%
    15:00 +1°C° 0,2 mm 4 m/s 750 mmHg 89%
    16:00 +1°C° 0,2 mm 4 m/s 750 mmHg 88%
    17:00 +1°C° 0,1 mm 4 m/s 750 mmHg 89%
    18:00 +1°C° 0,1 mm 3 m/s 750 mmHg 90%
    19:00 +1°C° 0,1 mm 3 m/s 751 mmHg 90%
    20:00 +1°C° 0,1 mm 3 m/s 751 mmHg 90%
    21:00 +1°C° 0,1 mm 3 m/s 751 mmHg 91%
    22:00 +1°C° 0,1 mm 3 m/s 751 mmHg 91%
    23:00 0°C° 0 mm 3 m/s 751 mmHg 91%

    23 Februarie, Vineri

    Timp Temperatura Precipitaţii Vânt Presiune Umiditate
    00:00 0°C° 0 mm 3 m/s 751 mmHg 91%
    01:00 0°C° 0 mm 3 m/s 751 mmHg 91%
    02:00 0°C° 0 mm 3 m/s 751 mmHg 90%
    03:00 0°C° 0 mm 3 m/s 751 mmHg 89%
    04:00 -1°C° 0 mm 3 m/s 751 mmHg 89%
    05:00 -1°C° 0 mm 3 m/s 751 mmHg 88%
    06:00 -1°C° 0 mm 3 m/s 752 mmHg 87%
    07:00 -1°C° 0 mm 3 m/s 752 mmHg 87%
    08:00 -2°C° 0 mm 4 m/s 752 mmHg 84%
    09:00 -1°C° 0 mm 4 m/s 752 mmHg 82%
    10:00 -1°C° 0 mm 4 m/s 753 mmHg 79%
    11:00 -1°C° 0 mm 4 m/s 753 mmHg 78%
    12:00 0°C° 0 mm 4 m/s 752 mmHg 76%
    13:00 0°C° 0 mm 4 m/s 752 mmHg 75%
    14:00 0°C° 0 mm 4 m/s 752 mmHg 75%
    15:00 0°C° 0 mm 4 m/s 752 mmHg 76%
    16:00 0°C° 0 mm 4 m/s 753 mmHg 77%
    17:00 -1°C° 0,1 mm 4 m/s 753 mmHg 78%
    18:00 -2°C° 0,1 mm 5 m/s 753 mmHg 78%
    19:00 -2°C° 0,1 mm 5 m/s 754 mmHg 78%
    20:00 -4°C° 0 mm 5 m/s 754 mmHg 75%
    21:00 -5°C° 0 mm 5 m/s 755 mmHg 73%
    22:00 -5°C° 0 mm 5 m/s 755 mmHg 71%
    23:00 -6°C° 0 mm 5 m/s 756 mmHg 70%
    Arată mai mult